Regional Weather Roundup
Issued by NWS Glasgow, MT

Home | Current Version | Previous Version | Text Only | Print | Product List | Glossary On
Versions: 1 2 3 4 5 6 7 8 9 10 11 12 13 14 15 16 17 18 19 20 21 22 23 24 25 26 27 28 29 30 31 32 33 34 35 36 37 38 39 40 41 42 43 44 45 46 47 48 49 50
000
ASUS45 KGGW 210015
RWRGGW
HOURLY WEATHER ROUNDUP FOR NORTHEAST MONTANA
NATIONAL WEATHER SERVICE GLASGOW MONTANA
600 PM MDT SAT SEP 20 2014

NOTE: "FAIR" INDICATES FEW OR NO CLOUDS BELOW 12,000 FEET WITH NO
SIGNIFICANT WEATHER AND/OR OBSTRUCTIONS TO VISISBILITY.

NORTHEAST MONTANA


CITY           SKY/WX    TMP DP  RH WIND       PRES   REMARKS
GLASGOW        SUNNY     71  33  24 NW14      30.16R
6HR MIN TEMP:  68; 6HR MAX TEMP:  74;

PLENTYWOOD       N/A     66  33  29 NW16G24     N/A
WOLF POINT     CLEAR     72  36  26 NW15      30.14R
JORDAN           N/A     71  36  27 NW9       30.20S
WINNETT          N/A     70  39  32 N3          N/A
SIDNEY         CLEAR     70  36  28 NW14G23   30.14R
GLENDIVE       NOT AVBL
MALTA            N/A     73  39  29 NW7         N/A
SCOBEY           N/A     66  32  28 NW15G21   30.13R
OPHEIM           N/A     63  32  31 NW12      30.02R

FORT PECK REPORTS


CITY           SKY/WX    TMP DP  RH WIND       PRES   REMARKS
FORT PECK        N/A     71  34  25 W18         N/A
THE PINES        N/A     73  33  23 NW10G20     N/A

SOUTHEAST MONTANA


CITY           SKY/WX    TMP DP  RH WIND       PRES   REMARKS
BILLINGS       SUNNY     73  41  31 E9        30.22S
MILES CITY     SUNNY     72  37  28 NW16      30.20R
BAKER          CLEAR     69  36  29 NW22G29   30.18R
LIVINGSTON     SUNNY     73  43  33 E15       30.21S

CENTRAL MONTANA


CITY           SKY/WX    TMP DP  RH WIND       PRES   REMARKS
HAVRE          SUNNY     72  37  28 N6        30.20F
LEWISTOWN      SUNNY     70  44  39 N5        30.25S
GREAT FALLS    SUNNY     71  42  35 E9        30.20F
CUT BANK       SUNNY     73  40  30 NE7       30.22S
HELENA         SUNNY     77  37  23 CALM      30.17F
BUTTE          SUNNY     74  35  24 SE8       30.25S
BOZEMAN        SUNNY     73  28  18 CALM      30.21F

WESTERN MONTANA


CITY           SKY/WX    TMP DP  RH WIND       PRES   REMARKS
MISSOULA       SUNNY     80  41  24 N14       30.13F
KALISPELL      NOT AVBL

NORTH DAKOTA


CITY           SKY/WX    TMP DP  RH WIND       PRES   REMARKS
WILLISTON      CLEAR     69  34  27 NW18G28   30.10R
DICKINSON      PTCLDY    67  35  30 NW16G24   30.10R
MINOT          CLEAR     67  37  33 NW22G33   29.99R
BISMARCK       CLEAR     69  39  33 NW17G25   30.03R

SOUTHERN SASKATCHEWAN


CITY           SKY/WX    TMP DP  RH WIND       PRES   REMARKS
REGINA         PTCLDY    64  41  42 NW17G29   30.06R
ESTEVAN        PTCLDY    64  41  42 NW16G23   30.05R
SWIFT CURRENT  SUNNY     64  32  29 NW16G28   30.15R




USA.gov is the U.S. government's official web portal to all federal, state and local government web resources and services.